Home > Weather > Mississauga > Past weeks

Flag for Canada Weather for the Past 2 Weeks in Mississauga, Ontario, Canada

Now
52 °F

Passing clouds.


Feels Like: 49 °F
Forecast: 45 / 61 °F
Wind: 7 mph from East

Location: Toronto Pearson International Airport

Current Time: May 4, 2016 at 11:47:47 PM

Latest Report: May 4, 2016 at 11:00 PM


Visibility: 15 mi

Pressure: 29.77 "Hg

Humidity: 67%

Dew Point: 41 °F

Location of MississaugaLocation

Historic Weather in Mississauga — Graph

°F

Mississauga Temperature Yesterday

Maximum temperature yesterday: 55 °F (at 11:00 AM)
Minimum temperature yesterday: 41 °F (at 6:00 AM)
Average temperature yesterday: 49 °F

High & Low Weather Summary for the Past Weeks

 TemperatureHumidityPressure
High64 °F (Apr 22, 11:00 AM)94% (Apr 22, 12:00 AM)30.37 "Hg (Apr 22, 12:00 AM)
Low34 °F (Apr 24, 6:00 AM)13% (Apr 20, 5:00 PM)29.69 "Hg (May 4, 4:00 PM)
Average46 °F58%30.02 "Hg
* Reported Apr 19 10:00 PM — May 4 10:00 PM, Mississauga, Weather by CustomWeather, © 2016

Note: Actual official high and low records may vary slightly from our data, if they occured in-between our weather recording intervals... More about our weather records

Advertising

Mississauga Weather History for the Previous 24 Hours

Scroll right to see more
 ConditionsComfort  
Time TempWeatherWind HumidityBarometerVisibility
10:00 PM
Wed, May 4
52 °FPassing clouds.5 mph67%29.76 "Hg15 mi
9:00 PM52 °FPartly sunny.6 mph67%29.74 "Hg15 mi
8:00 PM55 °FPartly sunny.10 mph55%29.73 "Hg15 mi
7:00 PM57 °FOvercast.14 mph44%29.71 "Hg15 mi
6:00 PM59 °FOvercast.9 mph45%29.70 "Hg15 mi
5:00 PM61 °FPartly sunny.12 mph45%29.69 "Hg15 mi
4:00 PM59 °FPartly sunny.8 mph48%29.69 "Hg15 mi
3:00 PM59 °FPartly sunny.7 mph48%29.70 "Hg15 mi
2:00 PM59 °FOvercast.10 mph51%29.71 "Hg15 mi
1:00 PM59 °FPartly sunny.12 mph51%29.72 "Hg15 mi
12:00 PM55 °FPartly sunny.12 mph59%29.73 "Hg15 mi
11:00 AM55 °FPartly sunny.10 mph55%29.73 "Hg15 mi
10:00 AM54 °FPartly sunny.6 mph63%29.73 "Hg15 mi
9:00 AM50 °FPartly sunny.7 mph71%29.74 "Hg15 mi
8:00 AM48 °FPartly sunny.6 mph76%29.74 "Hg15 mi
7:00 AM45 °FPassing clouds.3 mph76%29.73 "Hg15 mi
6:00 AM43 °FPassing clouds.6 mph81%29.73 "Hg15 mi
5:00 AM43 °FClear.5 mph76%29.74 "Hg15 mi
4:00 AM45 °FClear.5 mph71%29.74 "Hg15 mi
3:00 AM45 °FPassing clouds.3 mph71%29.75 "Hg15 mi
2:00 AM45 °FPassing clouds.No wind71%29.76 "Hg15 mi
1:00 AM45 °FPassing clouds.2 mph76%29.78 "Hg15 mi
12:00 AM45 °FPassing clouds.No wind76%29.79 "Hg15 mi
11:00 PM
Tue, May 3
45 °FPassing clouds.5 mph76%29.80 "Hg15 mi
Weather by CustomWeather, © 2016

See weather overviewHow to use our weather pages